Regional Weather Roundup
Issued by NWS Kansas City/Pleasant Hill, MO

Home | Current Version | Previous Version | Text Only | Print | Product List | Glossary On
Versions: 1 2 3 4 5 6 7 8 9 10 11 12 13 14 15 16 17 18 19 20 21 22 23 24 25 26 27 28 29 30 31 32 33 34 35 36 37 38 39 40 41 42 43 44 45 46 47 48 49 50
000
ASUS43 KEAX 241010
RWREAX

WEATHER ROUNDUP FOR EASTERN KANSAS AND NORTHWEST MISSOURI
NATIONAL WEATHER SERVICE KANSAS CITY/PLEASANT HILL MO
500 AM CDT SUN MAY 24 2015

KSZ040-057-103>105-MOZ028-029-037-043-241100-
...KANSAS CITY METROPOLITAN AREA...

CITY           SKY/WX    TMP DP  RH WIND       PRES   REMARKS
K.C. INTL      LGT RAIN  61  60  97 SE10      29.88S FOG
K.C. DOWNTOWN  CLOUDY    64  60  87 SE9       29.86F
LEES SUMMIT    LGT RAIN  63  61  93 S13G20    29.88F
OLATHE - IXD   CLOUDY    63  62  97 S10       29.87F
OLATHE - OJC   CLOUDY    64  63  96 S15G23    29.86F
LAWRENCE       LGT RAIN  63  62  97 SE3       29.87F FOG

$$

MOZ001>008-011>017-020>025-030>033-038>040-044>046-053-054-241100-
...NORTHERN AND CENTRAL MISSOURI...

CITY           SKY/WX    TMP DP  RH WIND       PRES   REMARKS
ST. JOSEPH     LGT RAIN  62  60  93 SE10      29.88F
MOSBY          CLOUDY    61  59  94 SE12G17   29.89S
WARRENSBURG    LGT RAIN  61  59  94 SE13G21   29.91F
WHITEMAN AFB   LGT RAIN  61  59  94 SE12G20   29.93F
CLINTON        RAIN      64  63  94 SE12G18   29.95F
SEDALIA        LGT RAIN  61  57  87 VRB7      29.99F
WARSAW         NOT AVBL
CHILLICOTHE      N/A     61  32  33 SE8G23    29.95F
KIRKSVILLE     RAIN      60  59  96 E9        30.03F FOG

$$

MOZ041-047>049-056>058-063>065-088>090-097-241100-
...EASTERN AND SOUTHERN MISSOURI...

CITY           SKY/WX    TMP DP  RH WIND       PRES   REMARKS
ST. LOUIS INTL CLOUDY    66  54  65 E7        30.10S
SPIRIT OF STL  CLOUDY    65  55  70 E7        30.07F
COLUMBIA       LGT RAIN  62  56  80 E9        30.01F
JEFFERSON CITY CLOUDY    67  54  63 E10       30.00F
ROLLA          CLOUDY    62  55  77 E9        30.01F
OSAGE BEACH    CLOUDY    66  54  63 SE6       29.98F
SPRINGFIELD    CLOUDY    67  59  75 SE16      29.96S
BRANSON        CLOUDY    64  63  94 SE7       30.00R
JOPLIN         LGT RAIN  65  63  93 S14       29.92R
WEST PLAINS    PTCLDY    64  55  72 SE7       30.06F

$$

IAZ060-094-KSZ022-034>040-054-083-096-NEZ052-066-093-241100-
...KANSAS...SOUTHEAST NEBRASKA AND IOWA...

CITY           SKY/WX    TMP DP  RH WIND       PRES   REMARKS
TOPEKA         CLOUDY    65  63  93 S7        29.86F
MANHATTAN      CLOUDY    63  62  97 CALM      29.86R
EMPORIA        CLOUDY    61  60  97 S3        29.88S
CHANUTE        CLOUDY    63  62  97 S7        29.88R
WICHITA        CLOUDY    60  58  92 E9        29.85F
OMAHA          CLOUDY    61  59  93 E12       29.90F
LINCOLN        LGT RAIN  60  59  96 E8        29.88F FOG
FALLS CITY     CLOUDY    62  60  93 SE9       29.86F
LAMONI         LGT RAIN  61  59  93 E10       29.95F
DES MOINES     LGT RAIN  61  57  87 SE10      29.99F

$$



USA.gov is the U.S. government's official web portal to all federal, state and local government web resources and services.